Tehachapi, CA

12:48 AM PDT on March 24, 2017 (GMT -0700)
Tehachapi Municipal

Weather History for KTSP - December, 2011

Change the Weather History Date:

Wednesday, December 21, 2011

  Actual Average Record
Temperature  
Mean Temperature 38 °F -  
Max Temperature 57 °F 49 °F 57 °F (2011)
Min Temperature 19 °F 26 °F 19 °F (2011)
Degree Days  
Heating Degree Days 27    
Moisture  
Dew Point 22 °F    
Average Humidity 62    
Maximum Humidity 93    
Minimum Humidity 20    
Precipitation  
Precipitation 0.00 in - - ()
Sea Level Pressure  
Sea Level Pressure 30.05 in    
Wind  
Wind Speed 3 mph (NW)    
Max Wind Speed 17 mph    
Max Gust Speed 22 mph    
Visibility 8 miles    
Events      
Averages and records for this station are not official NWS values.
T = Trace of Precipitation, MM = Missing Value Source: NWS Daily Summary

Daily Weather History Graph

Daily Weather History Graph

Search for Another Location

Airport or City:

Trip Planner

Search our weather history database for the weather conditions in past years. The results will help you decide how hot, cold, wet, or windy it might be!

Date:

Astronomy

Dec. 21, 2011 Rise Set
Actual Time 6:58 AM PST 4:45 PM PST
Civil Twilight 6:29 AM PST 5:13 PM PST
Nautical Twilight 5:58 AM PST 5:45 PM PST
Astronomical Twilight 5:27 AM PST 6:16 PM PST
Moon 3:39 AM PST (12/21) 2:07 PM PST (12/21)
Length of Visible Light 10h 43m
Length of Day
9h 47m
Waning Crescent, 11% of the Moon is Illuminated
Dec 21
Waning Crescent
Dec 24
New
Dec 31
First Quarter
Jan 8
Full
Jan 16
Last Quarter

Hourly Weather History & Observations

Time (PST) Temp. Windchill Dew Point Humidity Pressure Visibility Wind Dir Wind Speed Gust Speed Precip Events Conditions
12:15 AM 24.8 °F 20.5 °F 17.6 °F 74% 30.06 in 10.0 mi East 3.5 mph - N/A   Clear
12:35 AM 23.0 °F - 17.6 °F 80% 30.06 in 9.0 mi Calm Calm - N/A   Clear
12:55 AM 23.0 °F - 17.6 °F 80% 30.06 in 10.0 mi Calm Calm - N/A   Clear
1:15 AM 23.0 °F - 17.6 °F 80% 30.06 in 9.0 mi Calm Calm - N/A   Clear
1:35 AM 23.0 °F - 17.6 °F 80% 30.07 in 9.0 mi Calm Calm - N/A   Clear
1:55 AM 19.4 °F - 17.6 °F 93% 30.07 in 8.0 mi Calm Calm - N/A   Clear
2:15 AM 23.0 °F 17.0 °F 17.6 °F 80% 30.07 in 9.0 mi SE 4.6 mph - N/A   Clear
2:35 AM 23.0 °F - 17.6 °F 80% 30.07 in 10.0 mi Calm Calm - N/A   Clear
3:15 AM 23.0 °F 13.9 °F 17.6 °F 80% 30.06 in 10.0 mi SE 8.1 mph - N/A   Clear
3:35 AM 23.0 °F - 17.6 °F 80% 30.06 in 10.0 mi Calm Calm - N/A   Clear
3:55 AM 23.0 °F 18.4 °F 19.4 °F 86% 30.06 in 9.0 mi ESE 3.5 mph - N/A   Clear
4:15 AM 21.2 °F - 17.6 °F 86% 30.06 in 9.0 mi Calm Calm - N/A   Clear
4:35 AM 23.0 °F - 17.6 °F 80% 30.06 in 9.0 mi Calm Calm - N/A   Clear
4:55 AM 19.4 °F - 15.8 °F 86% 30.06 in 9.0 mi Calm Calm - N/A   Clear
5:15 AM 23.0 °F 18.4 °F 17.6 °F 80% 30.06 in 9.0 mi ESE 3.5 mph - N/A   Clear
5:35 AM 23.0 °F 17.0 °F 17.6 °F 80% 30.07 in 9.0 mi SE 4.6 mph - N/A   Clear
5:55 AM 23.0 °F 17.0 °F 19.4 °F 86% 30.07 in 10.0 mi SE 4.6 mph - N/A   Clear
6:15 AM 24.8 °F - 17.6 °F 74% 30.07 in 10.0 mi Calm Calm - N/A   Clear
6:35 AM 24.8 °F - 17.6 °F 74% 30.08 in 9.0 mi Calm Calm - N/A   Clear
6:55 AM 23.0 °F - 17.6 °F 80% 30.08 in 7.0 mi Calm Calm - N/A   Clear
7:15 AM 24.8 °F - 19.4 °F 80% 30.08 in 8.0 mi Calm Calm - N/A   Clear
7:35 AM 24.8 °F - 19.4 °F 80% 30.08 in 8.0 mi Calm Calm - N/A   Clear
7:55 AM 30.2 °F 26.7 °F 23.0 °F 75% 30.08 in 7.0 mi ESE 3.5 mph - N/A   Clear
8:15 AM 32.0 °F 28.7 °F 24.8 °F 75% 30.08 in 8.0 mi East 3.5 mph - N/A   Clear
8:35 AM 35.6 °F - 24.8 °F 65% 30.08 in 8.0 mi Calm Calm - N/A   Clear
8:55 AM 39.2 °F - 26.6 °F 61% 30.08 in 8.0 mi Calm Calm - N/A   Clear
9:15 AM 44.6 °F 43.1 °F 26.6 °F 49% 30.08 in 9.0 mi SE 3.5 mph - N/A   Clear
9:35 AM 46.4 °F 43.5 °F 24.8 °F 43% 30.09 in 8.0 mi SE 5.8 mph - N/A   Clear
9:55 AM 48.2 °F - 19.4 °F 32% 30.08 in 8.0 mi ESE 3.5 mph - N/A   Clear
10:15 AM 50.0 °F - 17.6 °F 28% 30.08 in 6.0 mi Calm Calm - N/A   Haze
10:35 AM 53.6 °F - 15.8 °F 22% 30.08 in 8.0 mi Calm Calm - N/A   Clear
10:55 AM 53.6 °F - 14.0 °F 21% 30.07 in 8.0 mi Calm Calm - N/A   Clear
11:15 AM 55.4 °F - 14.0 °F 20% 30.06 in 7.0 mi West 3.5 mph - N/A   Clear
11:35 AM 55.4 °F - 15.8 °F 21% 30.05 in 9.0 mi SW 4.6 mph - N/A   Clear
12:15 PM 57.2 °F - 19.4 °F 23% 30.03 in 8.0 mi NW 9.2 mph - N/A   Clear
12:35 PM 57.2 °F - 21.2 °F 25% 30.03 in 7.0 mi NW 11.5 mph - N/A   Clear
12:55 PM 55.4 °F - 21.2 °F 26% 30.01 in 7.0 mi NW 9.2 mph - N/A   Clear
1:15 PM 55.4 °F - 21.2 °F 26% 30.01 in 9.0 mi NW 10.4 mph - N/A   Clear
1:35 PM 53.6 °F - 24.8 °F 33% 30.01 in 8.0 mi NW 13.8 mph - N/A   Clear
1:55 PM 51.8 °F - 26.6 °F 38% 30.00 in 9.0 mi NW 13.8 mph - N/A   Clear
2:15 PM 51.8 °F - 24.8 °F 35% 30.00 in 8.0 mi NW 13.8 mph - N/A   Clear
2:35 PM 50.0 °F - 24.8 °F 37% 30.00 in 7.0 mi NW 13.8 mph 17.3 mph N/A   Clear
3:15 PM 46.4 °F 39.5 °F 26.6 °F 46% 30.02 in 5.0 mi NW 17.3 mph 21.9 mph N/A   Haze
3:35 PM 44.6 °F 38.4 °F 28.4 °F 53% 30.02 in 5.0 mi NW 12.7 mph - N/A   Haze
3:55 PM 44.6 °F 38.8 °F 28.4 °F 53% 30.02 in 5.0 mi NW 11.5 mph - N/A   Haze
4:15 PM 44.6 °F 40.2 °F 28.4 °F 53% 30.02 in 5.0 mi NW 8.1 mph - N/A   Haze
4:35 PM 42.8 °F 38.0 °F 26.6 °F 53% 30.02 in 5.0 mi NW 8.1 mph - N/A   Haze
4:55 PM 39.2 °F 33.6 °F 28.4 °F 65% 30.03 in 5.0 mi WNW 8.1 mph - N/A   Haze
5:15 PM 37.4 °F 29.3 °F 32.0 °F 81% 30.04 in 4.0 mi NW 12.7 mph - N/A   Haze
5:35 PM 37.4 °F 30.8 °F 32.0 °F 81% 30.05 in 4.0 mi NW 9.2 mph - N/A   Haze
5:55 PM 35.6 °F 29.9 °F 30.2 °F 81% 30.05 in 3.0 mi WSW 6.9 mph - N/A   Haze
6:15 PM 35.6 °F - 30.2 °F 81% 30.05 in 3.0 mi Calm Calm - N/A   Haze
6:35 PM 33.8 °F - 28.4 °F 81% 30.06 in 3.0 mi Calm Calm - N/A   Haze
6:55 PM 33.8 °F - 30.2 °F 87% 30.06 in 3.0 mi Calm Calm - N/A   Clear
7:15 PM 35.6 °F 29.2 °F 30.2 °F 81% 30.06 in 3.0 mi West 8.1 mph - N/A   Haze
7:35 PM 33.8 °F 29.6 °F 30.2 °F 87% 30.07 in 3.0 mi WNW 4.6 mph - N/A   Clear
7:55 PM 33.8 °F 28.6 °F 30.2 °F 87% 30.07 in 3.0 mi NW 5.8 mph - N/A   Clear
8:15 PM 32.0 °F - 28.4 °F 87% 30.08 in 2.5 mi Calm Calm - N/A   Clear
8:35 PM 28.4 °F - 26.6 °F 93% 30.08 in 2.0 mi Calm Calm - N/A   Clear
8:55 PM 28.4 °F - 26.6 °F 93% 30.09 in 2.0 mi Calm Calm - N/A   Clear
9:15 PM 26.6 °F - 24.8 °F 93% 30.09 in 2.5 mi Calm Calm - N/A   Clear
9:35 PM 26.6 °F - 24.8 °F 93% 30.09 in 2.5 mi Calm Calm - N/A   Clear
9:55 PM 24.8 °F 20.5 °F 23.0 °F 93% 30.09 in 2.0 mi SSE 3.5 mph - N/A   Clear
10:15 PM 24.8 °F - 23.0 °F 93% 30.10 in 2.5 mi Calm Calm - N/A   Clear
10:35 PM 24.8 °F 19.1 °F 23.0 °F 93% 30.10 in 3.0 mi ESE 4.6 mph - N/A   Clear
10:55 PM 24.8 °F - 23.0 °F 93% 30.10 in 3.0 mi Calm Calm - N/A   Clear
11:15 PM 24.8 °F 20.5 °F 23.0 °F 93% 30.10 in 3.0 mi SE 3.5 mph - N/A   Clear
11:35 PM 23.0 °F 15.8 °F 19.4 °F 86% 30.11 in 5.0 mi SE 5.8 mph - N/A   Clear